Location: Berg
(48.4333°N, 13.9167°E)
Time: 06:28:51
(UTC+00:00)

H-2A R/B - Pass Details

Date: 18 September 2020
Orbit: 734 x 836 km, 98.2° (Epoch: 27 October)

Event Time Altitude Azimuth Distance (km) Brightness Sun altitude
Rises 19:14:06 0° 202° (SSW) 3,161 5.1 -20.6°
Reaches altitude 10° 19:16:49 10° 217° (SW) 2,252 4.5 -21.0°
Maximum altitude 19:20:42 23° 269° (W) 1,577 4.3 -21.5°
Drops below altitude 10° 19:24:39 10° 320° (NW) 2,305 5.5 -22.1°
Sets 19:27:28 0° 336° (NNW) 3,255 6.1 -22.5°
